Regional Weather Roundup
Issued by NWS

Home | Current Version | Previous Version | Graphics & Text | Print | Product List | Glossary On
Versions: 1 2 3 4 5 6 7 8 9 10 11 12 13 14 15 16 17 18 19 20 21 22 23 24 25 26 27 28 29 30 31 32 33 34 35 36 37 38 39 40 41 42 43 44 45 46 47 48 49 50
000
ASUS45 KTFX 250010
RWRMT
MONTANA REGIONAL WEATHER ROUNDUP
NATIONAL WEATHER SERVICE GREAT FALLS MT
600 PM MDT SUN MAY 24 2015

NOTE: "FAIR" INDICATES FEW OR NO CLOUDS BELOW 12000 FEET WITH NO
SIGNIFICANT WEATHER AND/OR OBSTRUCTIONS TO VISIBILITY.

MTZ001>007-043-250100-
WEST OF THE DIVIDE

CITY           SKY/WX    TMP DP  RH WIND       PRES   REMARKS
KALISPELL      PTCLDY    74  32  21 S8        29.90F
MISSOULA       PTSUNNY   70  35  27 SE14      29.93F
BUTTE          CLOUDY    57  35  43 CALM      30.00F
MULLAN PASS    RAIN      50  36  58 SE5       30.01S
DEER LODGE       N/A     57  39  51 N6        30.04F
EUREKA           N/A     77  34  20 SE6       29.86F
HAMILTON         N/A     66  37  34 NW13      29.92F
LIBBY            N/A     75  32  20 SE8       29.85F
PLAINS           N/A     74  41  30 CALM      29.90F
RONAN            N/A     73  38  28 SE2       29.97F
THOMPSON FALLS   N/A     73  43  34 NE14      29.92S
$$

MTZ008-052>055-250100-
SOUTHWEST MONTANA

CITY           SKY/WX    TMP DP  RH WIND       PRES   REMARKS
BOZEMAN        LGT RAIN  52  48  86 SE6       30.00R FOG
DILLON         MOSUNNY   62  37  39 NE17      29.96F
W YELLOWSTONE  PTSUNNY   54  36  50 NW7       29.96S
THREE FORKS      N/A     57  57 100 N8        29.99F
$$

MTZ009-010-012-014-046-048-049-054-250100-
EAST SLOPES AND CENTRAL MONTANA

CITY           SKY/WX    TMP DP  RH WIND       PRES   REMARKS
CUT BANK       SUNNY     66  39  37 S13       30.00F
GREAT FALLS    CLOUDY    64  42  44 E12       29.99F
MALMSTROM AFB  MOSUNNY   61  44  53 E5        30.00F
HELENA         PTSUNNY   64  42  44 N7        29.97F
CONRAD           N/A     66  43  43 E10       30.03F
$$

MTZ011-013-016-021-045-047-050-051-250100-
NORTH CENTRAL MONTANA

CITY           SKY/WX    TMP DP  RH WIND       PRES   REMARKS
HAVRE          CLOUDY    70  35  27 E9        29.96F
LEWISTOWN      CLOUDY    59  46  62 CALM      30.01S
CHINOOK          N/A     64  43  45 E15       29.97S
FORT BENTON      N/A     66  43  42 NE3       29.99F
$$

MTZ017>020-022>027-061-062-250100-
NORTHEAST MONTANA

CITY           SKY/WX    TMP DP  RH WIND       PRES   REMARKS
GLASGOW        CLOUDY    73  33  23 E14       29.91F
JORDAN           N/A     64  46  52 SE10      29.94S
SIDNEY         PTSUNNY   63  55  77 CALM      29.93S
WOLF POINT     PTSUNNY   74  44  34 VRB5      29.92F
MALTA            N/A     73  43  34 CALM      29.91F
POPLAR           N/A     73  43  33 SE9       29.91F
SCOBEY           N/A     76  33  20 E12       29.93F
$$

MTZ028>42-056>058-250100-
SOUTHCENTRAL AND SOUTHEAST MONTANA

CITY           SKY/WX    TMP DP  RH WIND       PRES   REMARKS
BAKER          CLOUDY    58  54  86 S3        29.95F
BILLINGS       CLOUDY    61  45  55 NE9       29.97F
LIVINGSTON     CLOUDY    55  47  74 E13       29.98F
MILES CITY     CLOUDY    63  50  62 E15       29.93S
BIG TIMBER       N/A     55  45  67 E9        30.01S
EKALAKA          N/A     53  50  90 E7        29.94S
FORSYTH          N/A     61  52  72 E8        29.93S
LAUREL           N/A     61  45  55 NE1       29.96F
ROUNDUP          N/A     63  45  51 N5        29.90S
$$

REGIONAL REPORTS...DAKOTAS

CITY           SKY/WX    TMP DP  RH WIND       PRES   REMARKS
WILLISTON      SUNNY     75  37  25 SE17G25   29.91F
MINOT          PTSUNNY   72  41  32 E10G21    29.91F
DICKINSON      CLOUDY    64  49  57 E12       29.91F
BEACH          CLOUDY    57  57 100 CALM      29.95F
CROSBY         FAIR      75  36  23 E14G20    29.92F
WATFORD CITY   FAIR      72  41  33 E8        29.90S
BISMARCK       CLOUDY    65  50  58 E9        29.90F
GRAND FORKS    CLOUDY    74  49  41 E6        29.90F
FARGO          CLOUDY    69  53  56 SE8       29.89F
BUFFALO SD       N/A     57  54  89 N6        29.86F
RAPID CITY     CLOUDY    56  54  93 NE12      29.86S
$$

REGIONAL REPORTS...WYOMING/IDAHO/WASHINGTON

CITY           SKY/WX    TMP DP  RH WIND       PRES   REMARKS
GILLETTE       CLOUDY    51  49  92 NE13      29.90S
SHERIDAN       RAIN      51  49  92 N15       29.94F FOG
BUFFALO WY     HVY RAIN  46  44  93 W13       29.94S VSB 1
CODY           CLOUDY    50  45  81 N10       29.99S
YELLOWSTONE LA   N/A     45  39  79 VRB3      30.04F
IDAHO FALLS    PTSUNNY   63  46  54 N6        29.87F
SALMON         CLOUDY    70  37  30 E5        29.87F
BOISE          MOSUNNY   78  40  25 NW15G23   29.81F
SPOKANE        CLOUDY    77  43  29 SW10G20   29.86F
$$

REGIONAL REPORTS...ALBERTA

CITY           SKY/WX    TMP DP  RH WIND       PRES   REMARKS
EDMONTON       SUNNY     79  34  19 S9G17     29.89F
CALGARY        PTSUNNY   70  32  24 S16G23    29.94F
LETHBRIDGE     MOSUNNY   72  37  28 S20G26    29.96F
MEDICINE HAT   PTSUNNY   73  34  23 S6        29.95F
$$

REGIONAL REPORTS...SASKATCHEWAN

CITY           SKY/WX    TMP DP  RH WIND       PRES   REMARKS
SWIFT CURRENT  PTSUNNY   72  28  20 E7        29.96F
REGINA         PTSUNNY   73  36  25 NW14      29.93F
SASKATOON      MOSUNNY   82  30  15 W7        29.93S
$$



USA.gov is the U.S. government's official web portal to all federal, state and local government web resources and services.